Overview Statistics Trail Chart Weather Telemetry Raw packets
 

This is the latest recevied weather packets stored in our database for station/object W0AKY-13. If no packets are shown the sender has not sent any weather packets the latest 10 day(s).

<< 37 38 39 40 41 42 43 >>
Time Temp. Humidity Pressure Rain* Wind** Luminosity Snow
1788358877 27.22° C 68% 1014.5 hPa 0 mm - 42 W/m² -
1788358576 26.67° C 71% 1014.4 hPa 0 mm - 37 W/m² -
1788358273 26.67° C 69% 1014.5 hPa 0 mm - 38 W/m² -
1788357972 26.67° C 69% 1014.6 hPa 0 mm - 36 W/m² -
1788357668 26.67° C 70% 1014.6 hPa 0 mm - 33 W/m² -
1788357367 26.11° C 70% 1014.6 hPa 0 mm - 31 W/m² -
1788357062 26.11° C 70% 1014.6 hPa 0 mm - 31 W/m² -
1788356758 26.11° C 71% 1014.6 hPa 0 mm - 30 W/m² -
1788356458 25.56° C 71% 1014.5 hPa 0 mm - 29 W/m² -
1788356153 25.56° C 73% 1014.4 hPa 0 mm - 27 W/m² -
1788355853 25.56° C 71% 1014.5 hPa 0 mm - 26 W/m² -
1788355548 25° C 74% 1014.8 hPa 0 mm - 25 W/m² -
1788355243 24.44° C 75% 1014.4 hPa 0 mm - 23 W/m² -
1788354939 24.44° C 78% 1014.3 hPa 0 mm - 23 W/m² -
1788354639 23.89° C 78% 1014.5 hPa 0 mm - 22 W/m² -
1788354336 23.33° C 80% 1014.6 hPa 0 mm - 20 W/m² -
1788354031 22.78° C 82% 1014.3 hPa 0 mm - 19 W/m² -
1788353727 22.22° C 85% 1014.5 hPa 0 mm - 18 W/m² -
1788353422 21.67° C 87% 1014.5 hPa 0 mm - 16 W/m² -
1788353118 21.11° C 90% 1014.4 hPa 0 mm - 15 W/m² -
1788352813 21.11° C 92% 1014.3 hPa 0 mm - 14 W/m² -
1788352508 21.11° C 93% 1014.1 hPa 0 mm - 12 W/m² -
1788352208 21.11° C 93% 1014.1 hPa 0 mm - 11 W/m² -
1788351903 21.11° C 93% 1014.3 hPa 0 mm - 10 W/m² -
1788351598 21.11° C 93% 1014.4 hPa 0 mm - 8 W/m² -

* Rain latest hour (hover to see other rain measurements)
** Current wind speed in m/s (hover to see current wind gust speed)